Location: Newark
(16.3678°N, 77.8722°E)
Time: 10:03:18
(UTC+00:00)

A-11 Canister half - All Passes

Search period start: 15 December 2019 00:00
Search period end: 25 December 2019 00:00
Orbit: 1526 x 1683 km, 47.3° (Epoch: 14 December)

Date Brightness Start Highest point End Pass type
(mag) Time Alt. Az. Time Alt. Az. Time Alt. Az.
15 Dec - 05:42:54 10° NNW 05:51:31 32° NE 05:59:52 10° E daylight
15 Dec - 07:47:11 10° NW 07:56:59 68° SW 08:06:27 10° SSE daylight
15 Dec - 09:59:29 10° WSW 10:01:20 11° SW 10:03:12 10° SW daylight
15 Dec - 18:51:14 10° SE 18:52:12 10° SE 18:53:10 10° ESE night (unlit)
15 Dec - 20:46:57 10° SSW 20:56:38 65° SE 21:06:34 10° NE visible
15 Dec - 22:53:24 10° W 23:02:05 33° NW 23:10:58 10° NNE visible
16 Dec - 01:09:40 10° NNW 01:10:26 10° NNW 01:11:12 10° NNW daylight
16 Dec - 05:21:19 10° NNW 05:29:47 30° NE 05:38:00 10° E daylight
16 Dec - 07:25:29 10° NW 07:35:21 73° SW 07:44:54 10° SSE daylight
16 Dec - 09:36:24 10° WSW 09:39:43 12° SW 09:43:01 10° SW daylight
16 Dec - 20:25:25 10° SSW 20:34:59 61° SE 20:44:50 10° NE visible
16 Dec - 22:31:32 10° WSW 22:40:21 35° NW 22:49:23 10° NNE visible
17 Dec - 00:46:39 10° NNW 00:48:33 11° NNW 00:50:27 10° N visible
17 Dec - 04:59:45 10° NNW 05:08:02 28° NE 05:16:07 10° E daylight
17 Dec - 07:03:47 10° NW 07:13:43 77° SW 07:23:20 10° SE daylight
17 Dec - 09:13:50 10° W 09:18:05 14° SW 09:22:20 10° SSW daylight
17 Dec - 20:03:53 10° SSW 20:13:21 57° SE 20:23:07 10° NE visible
17 Dec - 22:09:42 10° WSW 22:18:38 37° NW 22:27:47 10° NNE visible
18 Dec - 00:24:05 10° NW 00:26:40 11° NNW 00:29:17 10° N visible
18 Dec - 04:38:10 10° NNW 04:46:18 27° NE 04:54:13 10° E daylight
18 Dec - 06:42:05 10° NW 06:52:05 82° SW 07:01:44 10° SE daylight
18 Dec - 08:51:28 10° W 08:56:28 15° SW 09:01:26 10° SSW daylight
18 Dec - 19:42:22 10° SSW 19:51:43 54° SE 20:01:22 10° NE night (unlit)
18 Dec - 21:47:52 10° WSW 21:56:55 40° NW 22:06:12 10° NNE visible
19 Dec - 00:01:39 10° NW 00:04:48 12° NNW 00:07:59 10° N visible
19 Dec - 04:16:36 10° NNW 04:24:32 25° NE 04:32:17 10° E daylight
19 Dec - 06:20:24 10° NW 06:30:27 87° SW 06:40:08 10° SE daylight
19 Dec - 08:29:14 10° W 08:34:51 17° SW 08:40:25 10° SSW daylight
19 Dec - 19:20:52 10° SSW 19:30:06 50° SE 19:39:35 10° ENE night (unlit)
19 Dec - 21:26:04 10° WSW 21:35:12 42° NW 21:44:36 10° NNE visible
19 Dec - 23:39:19 10° NW 23:42:56 12° NNW 23:46:36 10° N visible
20 Dec - 03:55:03 10° NNW 04:02:47 24° NNE 04:10:21 10° E daylight
20 Dec - 05:58:44 10° NW 06:08:47 89° NE 06:18:32 10° SE daylight
20 Dec - 08:07:04 10° W 08:13:14 18° SW 08:19:19 10° SSW daylight
20 Dec - 18:59:23 10° SSW 19:08:28 46° SE 19:17:49 10° ENE night (unlit)
20 Dec - 21:04:17 10° WSW 21:13:29 44° NW 21:22:59 10° NNE visible
20 Dec - 23:17:01 10° NW 23:21:05 13° NNW 23:25:11 10° N visible
21 Dec - 03:33:29 10° NNW 03:41:00 23° NNE 03:48:22 10° E daylight
21 Dec - 05:37:03 10° NW 05:47:09 84° NE 05:56:54 10° SE daylight
21 Dec - 07:44:59 10° W 07:51:36 20° SW 07:58:08 10° S daylight
21 Dec - 18:37:55 10° SSW 18:46:51 43° SE 18:56:02 10° ENE night (unlit)
21 Dec - 20:42:31 10° WSW 20:51:48 47° NW 21:01:23 10° NNE visible
21 Dec - 22:54:47 10° NW 22:59:14 13° NNW 23:03:44 10° N visible
22 Dec - 03:11:56 10° NNW 03:19:14 22° NNE 03:26:23 10° ENE daylight
22 Dec - 05:15:23 10° NW 05:25:30 80° NE 05:35:16 10° SE daylight
22 Dec - 07:22:57 10° W 07:30:00 22° SW 07:36:56 10° S daylight
22 Dec - 18:16:29 10° SSW 18:25:14 40° SE 18:34:13 10° ENE night (unlit)
22 Dec - 20:20:46 10° WSW 20:30:06 50° NW 20:39:46 10° NNE night (unlit)
22 Dec - 22:32:35 10° NW 22:37:24 14° NNW 22:42:16 10° N visible
23 Dec - 02:50:24 10° NNW 02:57:26 21° NNE 03:04:23 10° ENE daylight
23 Dec - 04:53:44 10° NW 05:03:50 75° NE 05:13:37 10° SE daylight
23 Dec - 07:00:57 10° WNW 07:08:22 24° SW 07:15:40 10° S daylight
23 Dec - 17:55:03 10° S 18:03:37 37° SE 18:12:24 10° ENE night (unlit)
23 Dec - 19:59:01 10° WSW 20:08:25 53° NW 20:18:08 10° NNE night (unlit)
23 Dec - 22:10:25 10° WNW 22:15:34 15° NNW 22:20:47 10° N visible
24 Dec - 02:28:51 10° NNW 02:35:39 19° NNE 02:42:21 10° ENE daylight
24 Dec - 04:32:04 10° NW 04:42:10 71° NE 04:51:56 10° SE daylight
24 Dec - 06:39:00 10° WNW 06:46:46 26° SW 06:54:22 10° S daylight
24 Dec - 17:33:38 10° S 17:42:00 35° SE 17:50:34 10° ENE night (unlit)
24 Dec - 19:37:18 10° WSW 19:46:44 56° NW 19:56:31 10° NNE night (unlit)
24 Dec - 21:48:17 10° WNW 21:53:44 16° NNW 21:59:17 10° N visible
